SCP
0 0 0 0 0 0 0 0 0 0 0 0 0 0 0 0 0 0 1 2 3 3 2 1 1 1 1 1 1 1 1 1 1 2 2 3 3 3 3 3 2 2 2 2
0 0 0 0 0 0 0 0 0 0 0 0 0 0 0 0 0 0 0 1 2 2 2 2 1 1 1 1 1 1 1 1 1 2 2 3 3 3 3 3 2 2 2 2
0 0 0 0 0 0 0 0 0 0 0 0 0 0 0 0 0 0 0 1 1 2 2 2 1 1 1 1 1 1 1 0 1 2 2 2 3 3 3 3 2 2 1 1
0 0 0 0 0 0 0 0 0 0 0 0 0 0 0 0 0 1 0 0 1 1 1 2 1 1 1 1 1 1 1 1 1 1 2 2 2 3 3 3 2 1 1 1
0 0 0 0 0 0 0 0 0 0 0 0 0 0 0 0 0 1 1 0 0 1 1 1 1 1 1 1 1 1 1 1 1 1 1 2 2 2 2 2 2 1 1 1
0 0 0 0 0 0 0 0 0 0 0 0 0 0 0 0 0 1 1 0 0 1 1 1 1 1 1 1 1 1 1 1 1 1 1 2 2 2 2 2 1 1 1 1
0 0 0 0 0 0 0 0 0 0 0 0 0 0 0 0 0 0 1 0 0 0 1 1 1 1 1 1 1 1 1 1 1 1 1 2 2 2 2 2 1 1 1 1
0 0 0 0 0 0 0 0 0 0 0 0 0 0 0 0 0 0 0 0 0 0 1 1 1 1 1 1 1 1 1 1 1 1 1 1 2 1 1 1 1 1 1 1
0 0 0 0 0 0 0 0 0 0 0 0 0 0 0 0 0 0 0 0 0 0 0 1 1 1 1 1 1 1 1 1 1 1 1 1 1 1 1 1 1 1 1 1
0 0 0 0 0 0 0 0 0 0 0 0 0 0 0 0 0 0 0 0 0 0 0 0 1 1 1 1 1 1 1 1 1 1 1 1 1 0 0 0 0 0 0 1
0 0 0 0 0 0 0 0 0 0 0 0 0 0 0 0 0 0 0 0 0 0 0 0 0 1 1 1 1 1 1 1 1 1 1 1 0 0 0 0 0 0 0 0
0 0 0 0 0 0 0 0 0 0 0 0 0 0 0 0 0 0 0 0 0 0 0 0 0 0 0 1 1 1 1 1 1 1 1 1 1 0 0 0 0 0 0 0
0 0 0 0 0 0 0 0 0 0 0 0 0 0 0 0 0 0 0 0 0 0 0 0 0 0 0 0 1 1 1 1 1 1 1 1 1 1 0 0 0 0 0 0
0 0 0 0 0 0 0 0 0 0 0 0 0 0 0 0 0 0 0 0 0 0 0 0 0 0 0 0 0 0 1 1 1 1 1 1 1 1 0 0 0 0 0 0
0 0 0 0 0 0 0 0 0 0 0 0 0 0 0 0 0 0 0 0 0 0 0 0 0 0 0 0 0 0 0 0 0 1 1 1 1 1 0 0 0 0 0 0
0 0 0 0 0 0 0 0 0 0 0 0 0 0 0 0 0 0 0 0 0 0 0 0 0 0 0 0 0 0 0 0 0 0 0 1 1 1 0 0 0 0 0 0
0 0 0 0 0 0 0 0 0 0 0 0 0 0 0 0 0 0 0 0 0 0 0 0 0 0 0 0 0 0 0 0 0 0 0 0 1 1 0 0 0 0 0 0
0 0 0 0 0 0 0 0 0 0 0 0 0 0 0 0 0 0 0 0 0 0 0 0 0 0 0 0 0 0 0 0 0 0 0 0 0 0 0 0 0 0 0 0
0 0 0 0 0 0 0 0 0 0 0 0 0 0 0 0 0 0 0 0 0 0 0 0 0 0 0 0 0 0 0 0 0 0 0 0 0 0 0 0 0 0 0 0
0 0 0 0 0 0 0 0 0 0 0 0 0 0 0 0 0 0 0 0 0 0 0 0 0 0 0 0 0 0 0 0 0 0 0 0 0 0 0 0 0 0 0 0
0 0 0 0 0 0 0 0 0 0 0 0 0 0 0 0 0 0 0 0 0 0 0 0 0 0 0 0 0 0 0 0 0 0 0 0 0 0 0 0 0 0 0 0
0 0 0 0 0 0 0 0 0 0 0 0 0 0 0 0 0 0 0 0 0 0 0 0 0 0 0 0 0 0 0 0 0 0 0 0 0 0 0 0 0 0 0 0
0 0 0 0 0 0 0 0 0 0 0 0 0 0 0 0 0 0 0 0 0 0 0 0 0 0 0 0 0 0 0 0 0 0 0 0 0 0 0 0 0 0 0 0
0 0 0 0 0 0 0 0 0 0 0 0 0 0 0 0 0 0 0 0 0 0 0 0 0 0 0 0 0 0 0 0 0 0 0 0 0 0 0 0 0 0 0 0
0 0 0 0 0 0 0 0 0 0 0 0 0 0 0 0 0 0 0 0 0 0 0 0 0 0 0 0 0 0 0 0 0 0 0 0 0 0 0 0 0 0 0 0
0 0 0 0 0 0 0 0 0 0 0 0 0 0 0 0 0 0 0 0 0 0 0 0 0 0 0 0 0 0 0 0 0 0 0 0 0 0 0 0 0 0 0 0
Wind_Speed
4 3 4 5 6 6 5 6 6 4 1 4 7 8 7 4 4 3 3 2 2 2 2 3 3 4 3 3 3 3 3 3 2 2 2 1 1 1 1 1 1 1 1 1
3 5 5 4 4 5 6 7 6 4 2 3 6 9 8 6 5 4 3 3 2 2 2 3 3 3 3 3 3 3 4 3 3 2 2 2 2 1 1 1 1 1 1 1
4 1 1 2 3 5 6 5 5 4 3 5 5 7 7 5 4 3 3 3 3 3 3 3 3 4 3 3 3 3 4 4 3 3 2 1 1 1 1 1 1 1 1 1
3 2 1 2 3 4 5 2 3 4 3 3 3 5 6 6 5 5 4 3 3 2 2 3 3 3 3 3 3 2 3 3 3 3 3 4 2 2 2 2 2 2 1 1
2 1 1 3 3 2 2 3 3 4 4 4 4 5 6 5 5 6 5 4 3 2 2 3 3 3 3 3 3 3 3 3 3 3 4 4 3 2 1 1 2 2 1 1
2 1 1 1 1 1 1 2 3 2 1 5 7 6 6 4 5 5 5 4 3 3 2 2 2 2 2 2 2 3 4 4 4 4 4 4 4 3 3 2 3 2 1 1
2 2 1 1 0 0 0 1 1 1 3 6 4 5 7 2 2 3 4 4 3 2 2 2 2 2 2 3 3 3 4 4 3 3 3 4 4 4 4 4 3 3 2 2
2 3 3 1 1 2 4 3 3 3 4 3 2 7 5 2 2 1 3 4 3 3 2 2 3 3 2 3 3 3 3 3 3 4 4 3 4 3 3 3 3 3 3 3
2 2 0 1 2 1 2 3 1 1 3 4 6 4 2 2 1 1 1 2 2 1 1 2 2 3 3 3 3 3 3 3 3 4 3 3 3 3 3 3 3 3 2 2
1 2 2 0 1 2 2 0 1 2 2 5 6 5 4 3 2 1 1 1 0 1 1 1 1 2 2 3 3 2 3 3 3 3 3 2 2 2 3 3 3 3 3 3
1 1 1 1 4 4 2 2 2 2 3 3 4 4 1 2 2 2 0 0 0 1 1 1 1 0 1 2 2 2 3 3 3 3 2 2 2 2 2 3 3 3 3 3
1 1 2 3 1 2 2 3 4 3 4 3 4 5 2 3 3 2 1 1 2 2 2 1 1 1 1 1 2 2 3 3 2 2 2 2 2 2 2 3 3 3 3 3
1 2 1 2 1 0 2 2 2 1 1 4 4 6 1 3 3 3 2 2 2 2 3 2 1 1 1 1 1 2 2 2 2 2 2 2 2 2 2 3 3 3 3 3
1 2 4 6 3 3 3 4 4 3 4 6 8 9 7 4 3 3 3 2 2 2 2 2 2 2 2 1 1 1 1 1 1 1 2 2 2 3 3 3 3 3 3 3
1 2 4 5 5 3 4 6 7 8 8 8 8 9 10 6 4 4 3 3 3 3 3 3 2 2 2 2 1 1 1 0 0 1 1 2 2 2 2 3 3 3 3 3
1 2 2 4 5 4 6 7 8 9 9 11 11 13 8 5 3 3 4 3 3 4 3 3 3 3 2 2 2 1 1 0 0 1 1 1 1 1 2 2 2 2 2 3
3 2 2 3 3 2 7 9 9 7 7 7 11 11 6 5 4 4 4 4 4 4 3 3 3 3 2 2 1 1 1 1 0 1 1 1 1 1 1 2 2 2 3 2
4 3 2 2 0 6 7 1 5 7 8 7 7 7 5 4 4 4 3 3 4 3 3 3 3 2 1 1 1 1 0 0 1 1 1 1 1 1 1 1 2 2 2 2
3 4 2 2 3 7 4 2 2 4 6 4 6 7 6 5 5 4 3 2 3 3 3 2 2 2 1 1 1 0 0 0 1 1 1 1 1 1 1 1 1 1 1 2
1 2 2 3 3 6 4 1 0 2 5 3 3 5 5 4 3 4 4 3 3 3 2 2 1 1 1 1 0 0 1 1 1 2 1 2 1 1 1 1 1 1 1 1
3 3 5 5 5 6 3 0 3 2 6 4 4 4 3 3 4 4 4 4 3 3 3 2 1 1 1 1 0 0 1 1 1 1 2 2 1 1 1 0 0 1 1 1
7 5 5 4 5 8 1 3 3 4 3 3 4 4 4 4 5 4 4 4 4 4 3 2 1 1 1 1 0 0 1 1 1 1 2 2 2 1 0 1 0 0 1 1
6 6 4 7 7 2 2 2 2 2 3 4 4 4 4 5 5 4 4 4 4 3 3 2 1 2 2 1 1 1 2 1 1 1 1 2 2 1 1 0 1 0 0 1
3 2 2 4 4 3 2 2 3 3 4 4 4 4 4 5 5 5 4 4 3 3 3 2 1 2 2 1 1 1 1 0 0 1 1 1 1 1 1 0 0 0 1 1
3 4 3 5 4 4 3 3 3 4 4 5 5 4 4 4 5 4 4 4 4 3 2 2 2 2 3 2 2 1 1 0 1 1 1 1 1 1 0 0 0 1 1 2
3 5 5 5 3 3 4 3 3 4 5 5 5 6 5 4 4 4 4 4 3 3 2 2 2 2 2 2 2 2 1 1 1 1 1 1 1 1 1 1 1 2 1 1
Wind_Direction
193 216 216 221 229 266 273 269 268 271 226 230 242 257 261 242 233 230 225 191 175 180 162 153 155 146 143 145 152 160 156 159 157 159 159 164 166 161 165 160 156 146 133 117
203 232 240 248 254 266 267 264 273 283 264 257 258 261 258 238 222 220 216 188 179 176 164 161 152 148 152 157 165 175 171 174 173 174 174 177 174 182 183 186 174 177 167 140
217 259 260 254 267 267 257 259 271 279 294 255 266 271 243 225 207 203 212 186 185 183 179 168 165 160 158 164 177 186 180 180 177 158 153 152 128 127 168 189 188 183 168 156
248 253 243 242 254 268 265 310 305 289 287 255 222 273 246 215 207 209 212 201 196 191 168 160 167 168 171 174 176 183 181 179 180 169 170 169 176 197 219 200 198 197 179 171
248 238 239 241 263 269 298 348 301 270 266 280 240 244 266 208 216 207 202 197 186 182 173 166 168 175 171 168 176 186 183 187 186 181 181 180 185 198 201 189 190 202 191 184
271 330 318 285 301 257 333 326 283 264 252 254 223 217 262 215 207 195 186 189 186 185 180 162 161 159 160 165 179 191 190 194 189 183 184 185 188 184 189 202 203 205 204 202
244 205 199 349 33 195 343 67 333 255 224 242 209 219 244 216 166 176 180 188 187 178 174 171 175 180 182 182 189 199 195 196 190 185 192 194 194 188 196 203 202 200 206 220
223 232 181 199 204 215 218 205 194 226 243 268 217 232 243 167 96 101 158 177 184 181 179 187 187 188 193 194 193 198 194 195 193 192 197 197 197 196 201 206 203 205 209 212
231 249 31 305 312 264 217 222 242 279 289 273 240 236 248 143 123 74 115 151 185 184 189 204 197 190 188 193 202 205 204 200 201 203 201 198 201 204 204 203 204 210 213 212
306 260 229 216 311 291 257 209 140 198 241 261 259 236 231 191 192 171 175 173 327 1 331 259 202 179 187 194 201 202 212 211 208 210 206 206 202 213 211 202 205 210 213 210
339 196 232 221 207 213 196 195 217 231 237 247 269 268 358 155 148 148 153 64 7 338 335 340 340 327 186 184 190 210 211 210 208 209 202 196 206 212 211 209 208 209 211 207
199 170 247 242 242 304 230 207 181 196 246 242 264 272 22 72 69 56 15 6 2 358 348 343 340 352 323 243 206 214 218 207 205 211 203 205 208 204 210 210 213 210 214 213
128 146 224 282 253 291 265 251 210 211 246 238 242 262 335 33 23 17 6 354 355 357 354 351 353 335 323 313 284 232 214 202 203 205 206 210 205 205 217 213 212 212 214 215
125 192 206 224 245 195 237 235 220 205 227 250 245 266 288 308 326 331 334 324 330 340 340 342 342 326 311 296 298 290 251 199 198 201 202 217 214 210 222 213 210 214 212 207
118 223 240 268 281 258 240 234 223 222 229 237 261 271 275 288 291 301 303 308 326 329 328 328 322 307 306 309 303 306 303 152 188 221 222 233 234 227 228 211 211 209 211 209
157 231 256 269 261 257 267 255 236 236 241 250 267 273 278 292 301 303 303 304 306 304 306 313 313 305 286 282 274 288 285 276 204 253 250 239 232 241 244 216 201 201 210 207
178 178 209 252 253 293 267 238 225 229 228 229 248 261 290 297 294 292 291 291 285 289 297 301 295 284 274 268 258 245 273 320 292 265 279 253 231 247 267 235 203 207 203 197
175 179 209 248 347 239 243 197 199 229 244 240 255 275 286 279 290 289 280 283 291 292 290 289 285 288 285 290 295 284 275 302 305 293 290 273 250 255 271 252 220 212 193 194
184 181 207 213 234 263 270 246 195 212 265 254 258 281 299 307 305 289 298 296 283 283 279 276 272 278 293 292 283 307 309 301 300 294 303 301 267 247 255 252 239 228 193 194
148 175 202 216 229 247 257 300 355 111 278 296 286 288 305 333 300 287 329 330 324 324 314 306 305 313 313 299 315 4 295 306 299 303 306 306 288 241 228 238 262 266 198 190
169 196 216 227 239 259 269 153 92 157 259 317 319 300 303 278 262 289 317 328 331 325 318 318 314 312 295 290 152 260 295 285 297 322 324 326 314 262 228 214 239 231 196 175
178 186 200 203 225 249 202 125 183 237 302 328 331 328 315 303 308 314 316 316 320 319 321 327 317 300 309 307 188 282 287 294 331 347 340 333 330 331 348 133 160 212 181 178
197 195 195 200 217 231 166 191 246 305 310 317 319 316 312 305 302 303 303 303 300 300 306 310 295 303 311 304 230 242 272 302 12 357 334 329 336 342 349 120 146 177 164 176
217 188 220 255 258 263 253 283 312 317 306 310 309 305 301 293 290 293 294 294 291 293 292 295 295 289 294 299 288 258 275 285 15 296 299 309 321 329 352 22 92 193 191 186
205 176 218 249 272 291 265 281 302 309 313 313 311 304 293 287 284 283 287 288 286 288 290 289 271 268 280 297 292 284 271 238 251 268 281 288 287 270 265 343 330 270 242 208
207 201 209 238 242 244 268 296 313 311 307 303 303 307 308 298 290 289 287 287 289 287 284 289 276 268 273 276 280 282 260 218 221 252 266 268 268 263 234 224 326 347 294 281